[[{"header":{"parameterUnit":"m.s-1","parameterCategory":1,"la1":30.2991,"la2":30.254,"lo1":-89.0895,"lo2":-89.0444,"dy":0.0017,"dx":0.0017,"nx":28,"ny":28,"refTime":"2023-11-17T09:00:00:Z","depth":0,"parameterNumber":2,"parameterNumberName":"U-component_of_WINDS"},"data":[0,0,0,0,0,0,0,0,0,0,0,0,0,0,0,0,0,0,0,0,0,0,0,0,0,0,0,0,0,0,0,0,0,0,0,0,0,0,0,0,0,0,0,0,0,0,0,0,0,0,0,0,0,0,0,0,0,0,1.0997,1.0998,0,1.1067,1.1067,1.1068,1.1019,1.1017,1.1015,1.1013,1.1085,1.1089,1.1093,0,0,0,0,0,0,0,0,0,0,0,0,0,1.0823,1.0827,1.0997,1.0998,1.0999,1.1067,1.1067,1.1068,1.102,1.1017,1.1014,1.1012,1.1084,1.1089,1.1093,0,0,0,0,0,0,0,0,0,0,0,0,0,1.0897,1.0828,1.0997,1.0983,1.0982,1.1066,1.1067,1.1069,1.102,1.1017,1.1014,1.1011,1.1082,1.1088,1.1094,1.1196,0,0,1.1112,1.1115,0,0,0,0,0,0,0,0,1.0892,1.0903,1.0984,1.0984,1.0983,1.1031,1.1033,1.1112,1.1021,1.1006,1.1013,1.1009,1.107,1.1077,1.1097,1.12,1.1203,1.1113,1.1116,1.1119,1.1121,0,0,0,0,0,0,0,1.0887,1.09,1.1025,1.0985,1.0985,1.0973,1.098,1.1047,1.1056,1.1007,1.1004,1.1012,1.1069,1.1091,1.1098,1.1204,1.1112,1.1118,1.1121,1.1124,1.1394,1.1397,0,0,0,0,0,0,1.0884,1.0896,1.1023,1.1027,1.0929,1.0979,1.0986,1.1019,1.1055,1.1057,1.1015,1.101,1.1083,1.1091,1.1101,1.1223,1.1119,1.1124,1.1128,1.139,1.1395,1.1399,0,0,0,0,0,0,1.088,1.0895,1.102,1.096,1.0975,1.0985,1.1022,1.1022,1.1044,1.1061,1.1062,1.1036,1.108,1.1092,1.1173,1.1225,1.1127,1.1132,1.1386,1.1392,1.1397,1.1468,0,0,0,0,0,0,1.0875,1.0894,1.0933,1.0962,1.0979,1.1091,1.1026,1.1026,1.1054,1.1048,1.1081,1.1083,1.1079,1.1164,1.1179,1.1231,1.1137,1.1382,1.1389,1.1395,1.1462,1.1476,1.1488,0,0,0,0,0,1.0869,1.0951,1.0936,1.0951,1.1028,1.1094,1.1104,1.1097,1.1059,1.1098,1.1109,1.1082,1.1216,1.1173,1.1189,1.1244,1.1378,1.1387,1.1395,1.1456,1.1473,1.1487,0,0,0,0,0,0,1.0929,1.0954,1.0938,1.1031,1.1061,1.1085,1.1135,1.1115,1.1156,1.1149,1.1139,1.1146,1.1231,1.1245,1.1196,1.1345,1.1291,1.1303,1.1332,1.1349,1.1362,1.1357,1.1142,0,0,0,0,0,1.0953,1.1004,1.1024,1.1104,1.112,1.1125,1.1154,1.1146,1.1176,1.1189,1.1205,1.1236,1.1285,1.1317,1.1364,1.1463,1.147,1.1509,1.1522,1.1532,1.1543,1.1597,1.1614,1.1425,1.1425,1.1425,0,0,1.1003,1.1023,1.1057,1.1117,1.1139,1.1193,1.1136,1.1195,1.1235,1.1198,1.1275,1.1288,1.1322,1.1412,1.1453,1.1427,1.1596,1.1543,1.1551,1.1556,1.1607,1.1625,1.1641,1.1431,1.143,1.1429,0,0,1.1122,1.1143,1.1212,1.1235,1.1269,1.1271,1.1288,1.1316,1.1323,1.14,1.1373,1.142,1.1505,1.153,1.1554,1.1682,1.166,1.1698,1.1766,1.1819,1.1834,1.1847,1.1893,1.191,1.1708,1.1708,1.1708,0,1.1181,1.1261,1.125,1.1312,1.1339,1.1307,1.1377,1.14,1.1447,1.1467,1.1437,1.1542,1.1563,1.1659,1.169,1.171,1.1729,1.1694,1.1832,1.1846,1.1858,1.1902,1.1919,1.1712,1.1712,1.1711,1.1711,0,1.1331,1.1386,1.1438,1.1484,1.1517,1.1583,1.1583,1.1618,1.1607,1.1612,1.1691,1.1715,1.1765,1.1787,1.1777,1.1881,1.1864,1.1834,1.178,1.188,1.1921,1.1938,1.1719,1.1717,1.1716,1.1715,0,0,1.1491,1.1529,1.1549,1.1569,1.1604,1.1647,1.1711,1.1759,1.179,1.1823,1.1877,1.1949,1.1921,1.1948,1.194,1.1986,1.2087,1.195,1.195,1.1975,1.2204,1.2227,1.2247,1.2071,1.2074,1.2077,1.2201,0,1.1612,1.1723,1.1715,1.182,1.1872,1.1841,1.1897,1.1925,1.1932,1.1976,1.1984,1.2036,1.1994,1.201,1.2055,1.2065,1.2132,1.2056,1.2122,1.2124,1.2115,1.2268,1.2293,1.241,1.2217,1.222,1.2222,0,1.1768,1.1807,1.1917,1.1943,1.1965,1.2015,1.2059,1.2102,1.2132,1.2134,1.2164,1.2149,1.2214,1.2158,1.2247,1.2196,1.2222,1.2231,1.2235,1.2242,1.218,1.228,1.2446,1.2464,1.2247,1.2245,1.2243,0,1.1874,1.1954,1.203,1.2048,1.2081,1.2117,1.2132,1.2159,1.2189,1.2227,1.2247,1.2292,1.2317,1.2353,1.2351,1.231,1.2442,1.2385,1.2445,1.2446,1.2475,1.2474,1.2649,1.2491,1.2491,1.2491,1.249,0,1.2011,1.208,1.2078,1.2125,1.2201,1.2191,1.2267,1.2278,1.2302,1.2351,1.2328,1.2374,1.2367,1.2414,1.2412,1.2487,1.2498,1.2502,1.2501,1.2504,1.2504,1.2522,1.2514,1.2495,1.2494,1.2493,1.2493,0,1.2143,1.2144,1.2225,1.2249,1.2257,1.2312,1.2333,1.2377,1.2382,1.2444,1.2458,1.2466,1.2519,1.252,1.2581,1.258,1.2671,1.2661,1.2661,1.2659,1.2719,1.2714,1.2914,1.294,1.2764,1.2766,1.2767,0,1.223,1.2282,1.2312,1.2342,1.236,1.241,1.244,1.2432,1.2464,1.2503,1.2543,1.2594,1.2635,1.2722,1.2733,1.278,1.2771,1.2838,1.2778,1.278,1.2773,1.277,1.2775,1.285,1.2852,1.2853,1.2854,0,1.2385,1.2383,1.2427,1.2471,1.2508,1.2542,1.2574,1.2601,1.2597,1.2634,1.2689,1.272,1.2783,1.2834,1.2879,1.2895,1.2875,1.2873,1.2889,1.2894,1.2892,1.2895,1.2694,1.2869,1.2867,1.2866,1.2865,1.2865,1.2498,1.2543,1.257,1.262,1.2643,1.2673,1.2716,1.2726,1.2771,1.2821,1.2814,1.2875,1.2904,1.2962,1.2982,1.303,1.3006,1.303,1.3036,1.3043,1.3049,1.2884,1.3038,1.3037,1.3037,1.3037,1.3036,0,1.2652,1.2668,1.2714,1.2759,1.2798,1.2774,1.2808,1.2843,1.2897,1.2925,1.2965,1.3028,1.3077,1.3092,1.314,1.3176,1.3168,1.3189,1.3186,1.3191,1.3067,1.3048,1.3195,1.3195,1.3194,1.3194,1.3194,1.3194,1.2737,1.2811,1.2813,1.2899,1.2914,1.2973,1.2995,1.3023,1.3045,1.3116,1.3157,1.3166,1.3189,1.3239,1.3283,1.3287,1.3306,1.3331,1.333,1.3215,1.3199,1.3184,1.3166,1.3335,1.3335,1.345,1.3451,1.3452]},{"header":{"parameterUnit":"m.s-1","parameterCategory":1,"la1":30.2991,"la2":30.254,"lo1":-89.0895,"lo2":-89.0444,"dy":0.0017,"dx":0.0017,"nx":28,"ny":28,"refTime":"2023-11-17T09:00:00:Z","depth":0,"parameterNumber":3,"parameterNumberName":"V-component_of_WINDS"},"data":[0,0,0,0,0,0,0,0,0,0,0,0,0,0,0,0,0,0,0,0,0,0,0,0,0,0,0,0,0,0,0,0,0,0,0,0,0,0,0,0,0,0,0,0,0,0,0,0,0,0,0,0,0,0,0,0,0,0,-0.7739,-0.7741,0,-0.7936,-0.7938,-0.7941,-0.8046,-0.8046,-0.8046,-0.8046,-0.8249,-0.8255,-0.826,0,0,0,0,0,0,0,0,0,0,0,0,0,-0.7456,-0.746,-0.7739,-0.7741,-0.7744,-0.7936,-0.7939,-0.7941,-0.8046,-0.8046,-0.8046,-0.8046,-0.8248,-0.8254,-0.826,0,0,0,0,0,0,0,0,0,0,0,0,0,-0.7608,-0.7462,-0.7739,-0.7819,-0.7828,-0.7935,-0.7939,-0.7942,-0.8046,-0.8046,-0.8046,-0.8047,-0.8246,-0.8253,-0.8261,-0.8303,0,0,-0.8285,-0.8288,0,0,0,0,0,0,0,0,-0.76,-0.7619,-0.7805,-0.7814,-0.7824,-0.7967,-0.7913,-0.8063,-0.8046,-0.7963,-0.8046,-0.8047,-0.8155,-0.817,-0.8207,-0.8313,-0.8321,-0.8286,-0.829,-0.8294,-0.8296,0,0,0,0,0,0,0,-0.7589,-0.7611,-0.7817,-0.7807,-0.7819,-0.7846,-0.7868,-0.7942,-0.8055,-0.797,-0.7978,-0.8,-0.8161,-0.8199,-0.8212,-0.8324,-0.8285,-0.8292,-0.8297,-0.83,-0.8478,-0.8478,0,0,0,0,0,0,-0.7565,-0.7601,-0.7811,-0.7823,-0.771,-0.7851,-0.7876,-0.7921,-0.8055,-0.8075,-0.8,-0.8004,-0.8185,-0.8203,-0.822,-0.828,-0.8294,-0.8301,-0.8306,-0.8478,-0.8478,-0.8478,0,0,0,0,0,0,-0.7559,-0.7583,-0.7803,-0.7714,-0.7745,-0.7856,-0.7905,-0.7924,-0.7963,-0.8077,-0.8098,-0.8018,-0.8186,-0.8209,-0.8282,-0.8288,-0.8305,-0.8312,-0.8478,-0.8478,-0.8478,-0.8399,0,0,0,0,0,0,-0.755,-0.758,-0.7596,-0.7714,-0.7749,-0.7861,-0.7906,-0.7928,-0.7976,-0.7984,-0.81,-0.8119,-0.8188,-0.827,-0.829,-0.83,-0.8318,-0.8478,-0.8478,-0.8478,-0.8402,-0.8396,-0.8392,0,0,0,0,0,-0.7539,-0.7566,-0.7596,-0.7621,-0.7772,-0.7861,-0.7881,-0.796,-0.7976,-0.7994,-0.8068,-0.8115,-0.8284,-0.8277,-0.83,-0.8312,-0.8478,-0.8478,-0.8478,-0.8404,-0.8397,-0.8392,0,0,0,0,0,0,-0.7446,-0.7583,-0.7618,-0.7683,-0.776,-0.7878,-0.7904,-0.795,-0.8024,-0.8028,-0.8123,-0.8149,-0.8213,-0.827,-0.8259,-0.8361,-0.8386,-0.8391,-0.8322,-0.8317,-0.8312,-0.8297,-0.8324,0,0,0,0,0,-0.7433,-0.7493,-0.761,-0.7656,-0.7693,-0.7791,-0.7833,-0.7887,-0.797,-0.8003,-0.8082,-0.8161,-0.8233,-0.8278,-0.835,-0.841,-0.8438,-0.843,-0.8425,-0.8421,-0.8424,-0.8462,-0.8461,-0.8478,-0.8478,-0.8478,0,0,-0.7406,-0.7489,-0.7521,-0.764,-0.7705,-0.7767,-0.7818,-0.788,-0.7927,-0.8013,-0.8088,-0.8148,-0.8243,-0.8311,-0.8344,-0.836,-0.8425,-0.8421,-0.8416,-0.8422,-0.8462,-0.8461,-0.8459,-0.8478,-0.8478,-0.8478,0,0,-0.739,-0.7458,-0.7505,-0.757,-0.7668,-0.7734,-0.7745,-0.7857,-0.7901,-0.7977,-0.8043,-0.8101,-0.8221,-0.8287,-0.8336,-0.8346,-0.8394,-0.8367,-0.8342,-0.8378,-0.8377,-0.8376,-0.8382,-0.8382,-0.837,-0.837,-0.8369,0,-0.7345,-0.744,-0.7523,-0.7583,-0.7633,-0.7714,-0.7763,-0.7822,-0.7939,-0.7973,-0.7988,-0.8143,-0.8212,-0.8297,-0.83,-0.8336,-0.8353,-0.8354,-0.837,-0.837,-0.8371,-0.8377,-0.8379,-0.8366,-0.8366,-0.8367,-0.8367,0,-0.7381,-0.7445,-0.7472,-0.7583,-0.7637,-0.769,-0.7783,-0.7827,-0.7877,-0.7941,-0.8019,-0.8106,-0.8197,-0.8221,-0.827,-0.8314,-0.8321,-0.8352,-0.8379,-0.8364,-0.8372,-0.8375,-0.836,-0.8362,-0.8363,-0.8364,0,0,-0.731,-0.7468,-0.7476,-0.7529,-0.7644,-0.7696,-0.7754,-0.7844,-0.7881,-0.7959,-0.8012,-0.8112,-0.8143,-0.8198,-0.8256,-0.8287,-0.8292,-0.8315,-0.8319,-0.8309,-0.8348,-0.8324,-0.8325,-0.8324,-0.8325,-0.8325,-0.834,0,-0.7312,-0.7419,-0.7497,-0.7575,-0.7637,-0.7715,-0.7766,-0.7843,-0.7905,-0.7967,-0.8036,-0.8107,-0.814,-0.8175,-0.8209,-0.8284,-0.8301,-0.8284,-0.8375,-0.8377,-0.8349,-0.8329,-0.8304,-0.8314,-0.8343,-0.8344,-0.8344,0,-0.7327,-0.7404,-0.7488,-0.7599,-0.7627,-0.7672,-0.7761,-0.7819,-0.7909,-0.7952,-0.8014,-0.8074,-0.814,-0.816,-0.8254,-0.824,-0.8283,-0.8325,-0.8327,-0.834,-0.836,-0.8342,-0.8319,-0.8321,-0.835,-0.8349,-0.8349,0,-0.727,-0.7393,-0.746,-0.7502,-0.7633,-0.7662,-0.7718,-0.7808,-0.7857,-0.7936,-0.7969,-0.8054,-0.81,-0.8165,-0.8246,-0.8253,-0.8332,-0.8359,-0.8371,-0.8369,-0.8385,-0.8383,-0.837,-0.841,-0.841,-0.841,-0.841,0,-0.7264,-0.7313,-0.7436,-0.7478,-0.7535,-0.7624,-0.7679,-0.7742,-0.7821,-0.7877,-0.795,-0.8001,-0.8104,-0.8168,-0.8232,-0.8301,-0.8321,-0.8359,-0.8376,-0.8353,-0.8349,-0.8383,-0.8385,-0.841,-0.841,-0.841,-0.841,0,-0.7209,-0.7294,-0.7372,-0.749,-0.752,-0.7558,-0.7659,-0.7703,-0.7769,-0.7838,-0.786,-0.7964,-0.8043,-0.8131,-0.8239,-0.8282,-0.8348,-0.8371,-0.8317,-0.8327,-0.8335,-0.8333,-0.8344,-0.8351,-0.8384,-0.8383,-0.8383,0,-0.72,-0.724,-0.7362,-0.7404,-0.7458,-0.7525,-0.7576,-0.7666,-0.7716,-0.7822,-0.7853,-0.7938,-0.8011,-0.8134,-0.822,-0.8304,-0.833,-0.8328,-0.8344,-0.832,-0.8332,-0.8329,-0.8335,-0.8324,-0.8323,-0.8322,-0.8322,0,-0.7176,-0.7216,-0.7287,-0.7372,-0.7431,-0.7503,-0.7578,-0.7609,-0.7713,-0.7766,-0.7848,-0.7904,-0.8016,-0.81,-0.8194,-0.8253,-0.8306,-0.8316,-0.8324,-0.8302,-0.827,-0.8289,-0.8306,-0.8316,-0.8316,-0.8317,-0.8317,-0.8317,-0.7146,-0.7185,-0.7277,-0.7354,-0.742,-0.7488,-0.7536,-0.7608,-0.7677,-0.7775,-0.7824,-0.7905,-0.7996,-0.8129,-0.8186,-0.8252,-0.8269,-0.8279,-0.8282,-0.8284,-0.8278,-0.8258,-0.827,-0.827,-0.827,-0.8271,-0.8271,0,-0.7127,-0.719,-0.7259,-0.7362,-0.7423,-0.7466,-0.7551,-0.76,-0.767,-0.775,-0.782,-0.7916,-0.7998,-0.809,-0.8179,-0.8214,-0.824,-0.8234,-0.8233,-0.8246,-0.8258,-0.8243,-0.8212,-0.8212,-0.8212,-0.8212,-0.8212,-0.8212,-0.7124,-0.7194,-0.7245,-0.7349,-0.7412,-0.7493,-0.7538,-0.7602,-0.7667,-0.7769,-0.7838,-0.7898,-0.7984,-0.8079,-0.8157,-0.8182,-0.8212,-0.8199,-0.8231,-0.824,-0.8245,-0.825,-0.8237,-0.8204,-0.8204,-0.8215,-0.8215,-0.8215]}]]